www.pogodaiklimat.ru

Погода и климат >> Архив погоды >> Россия >> Мурманская область >> Умбозеро


ПОГОДА в Умбозере

  • Прогноз погоды в Умбозере
  • Монитор погоды в Умбозере

АРХИВ ПОГОДЫ в Умбозере

Время (UTC), дата Ветер
(напр.,м/с)
 
Видим.   Явления Облачность Т
(С)
Тd
(С)
f
(%)
Тe
(С)
Тes
(С)
Комфортность P
(гПа)
Po
(гПа)
Тmin
(С)
Tmax
(С)
R
(мм)
R24
(мм)
S
(см)
06 15.09 С 4-10
{10}
н/о н/о +6.4 +2.4 76 +3 +3 1001.0 982.5 +4.8
09 15.09 С 4-7
{11}
н/о н/о +6.1 +2.7 79 +2 +2 999.4 980.9
12 15.09 С 4-8
{10}
н/о н/о +5.3 +2.7 83 +1 +1 997.7 979.2
15 15.09 С 4 н/о н/о +5.5 +2.2 79 +2 +2 995.5 977.1
18 15.09 С 3 н/о н/о +5.0 +3.1 88 +1 +1 993.1 974.7 +6.8
21 15.09 С 2 н/о н/о +5.7 +3.7 87 +3 +3 991.4 973.1
00 16.09 С 2 н/о н/о +6.7 +4.6 86 +4 +4 990.5 972.2
03 16.09 С 4 н/о н/о +7.0 +4.7 85 +3 +3 990.2 971.9 +5.0
06 16.09 СВ 3-7
{10}
н/о н/о +7.0 +4.7 85 +4 +4 990.4 972.1 +5.0
09 16.09 С 4 н/о н/о +8.3 +4.9 79 +5 +5 991.0 972.8
12 16.09 СВ 3-7
{10}
н/о н/о +8.4 +5.6 83 +6 +6 992.0 973.8
15 16.09 СВ 3 н/о н/о +8.1 +4.6 79 +5 +5 993.4 975.1
18 16.09 СВ 3-7
{10}
н/о н/о +6.7 +3.7 81 +4 +4 994.8 976.4 +9.1
21 16.09 СВ 2 н/о н/о +6.3 +3.0 79 +4 +4 995.2 976.8
00 17.09 СВ 4-9
{10}
н/о н/о +5.3 +2.4 82 +1 +1 996.0 977.5
03 17.09 СВ 4 н/о н/о +5.0 +1.4 78 +1 +1 996.8 978.3 +5.1
06 17.09 СВ 4 н/о н/о +5.6 +0.9 72 +2 +2 997.9 979.4 +4.9
09 17.09 СВ 3 н/о н/о +7.4 +1.7 67 +5 +5 999.1 980.8
12 17.09 СВ 3-8
{10}
н/о н/о +6.9 +1.3 67 +4 +4 1000.3 981.9
15 17.09 СВ 3 н/о н/о +5.5 -1.7 60 +3 +3 1001.4 982.8
18 17.09 С 3 н/о н/о +2.6 -0.6 79 -1 -1 1002.3 983.5 +8.1
21 17.09 С 3 н/о н/о +1.5 -1.0 83 -3 -3 1003.0 984.1
00 18.09 С 2 н/о н/о +1.7 -1.4 80 -2 -2 1003.5 984.6
03 18.09 С 2 н/о н/о +1.2 -1.8 80 -2 -2 1003.5 984.6 +0.6
06 18.09 С 2 н/о н/о +3.1 -1.3 73 0 0 1003.9 985.1 +0.6
09 18.09 С 3 н/о н/о +4.5 -0.5 70 +1 +1 1004.7 986.0
12 18.09 С 2 н/о н/о +5.6 -0.6 64 +3 +3 1005.2 986.6
15 18.09 С 2 н/о н/о +4.2 -0.1 74 +2 +2 1006.0 987.3
18 18.09 СВ 1 н/о н/о +1.8 -0.8 83 0 0 1006.8 987.9 +7.4
21 18.09 ЮЗ 1 н/о н/о +1.4 -2.0 78 -0 -0 1007.0 988.0
00 19.09 С 2 н/о н/о +1.5 -2.4 75 -2 -2 1007.0 988.1
03 19.09 штиль 0 н/о н/о -1.8 -3.9 86 -3 -3 1007.2 988.0 -1.5
06 19.09 СЗ 3 н/о н/о +3.3 -2.5 66 -0 -0 1006.8 988.0 -2.0
09 19.09 С 3 н/о н/о +5.2 -1.9 60 +2 +2 1007.1 988.4
12 19.09 С 2 н/о н/о +5.3 -3.4 53 +3 +3 1007.4 988.7
15 19.09 СЗ 1 н/о н/о +3.9 -2.7 62 +3 +3 1007.2 988.4
18 19.09 ЮЗ 1 н/о н/о -1.3 -4.3 80 -3 -3 1007.0 987.9 +6.3
00 20.09 ЮЗ 1 н/о н/о +0.7 -2.0 82 -1 -1 1003.9 985.0
03 20.09 З 2 н/о н/о +0.5 -1.4 87 -3 -3 1001.5 982.6 -2.0
06 20.09 ЮЗ 2 н/о н/о +1.8 -0.5 85 -2 -2 1000.3 981.5 -2.0
09 20.09 З 3 н/о н/о +7.1 -0.1 60 +5 +5 1000.2 981.7
12 20.09 СЗ 5-9
{11}
н/о н/о +7.0 -0.3 60 +3 +3 1000.9 982.5
15 20.09 СЗ 4-7
{10}
н/о н/о +4.3 +0.2 75 0 0 1002.0 983.4
18 20.09 С 3 н/о н/о +3.2 +1.0 85 -1 -1 1003.0 984.2 +7.7
21 20.09 СЗ 2 н/о н/о +3.4 +0.6 82 +1 +1 1003.6 984.8
00 21.09 С 3-7
{11}
н/о н/о +3.2 -0.2 78 -1 -1 1003.5 984.8
03 21.09 С 1 н/о н/о +2.8 -0.7 78 +1 +1 1003.4 984.6 +2.3

 

Местоположение метеостанции Умбозеро (Мурманская область, Россия): широта 67.53 долгота 34.32 высота над уровнем моря 152 м.

В архиве по умолчанию представлена погода в Умбозере за последнюю неделю. Архивные данные за месяц целиком и за предыдущие месяцы, начиная с января 2011 года, Вы можете получить, выбрав интересующий диапазон дат из раскрывающегося списка и нажав кнопку "Ввод!".


*Определитесь, кто Вы:
робот инопланетянин человек

Внимание! Время в таблицах - всемирное. Для получения местного времени необходимо прибавить поправку, которая равна 3 ч.

Смотрите также архив погоды в соседних городах и на ближайших метеорологических станциях:

Погода в Кировске (Мурманская область, Россия) (29 км)
Погода в Апатитах (Мурманская область, Россия) (41 км)
Погода в Ловозере (Мурманская область, Россия) (60 км)
Погода в Мончегорске (Мурманская область, Россия) (73 км)
Погода в Зашейке (Мурманская область, Россия) (77 км)
Погода в Порту Кандалакша (Мурманская область, Россия) (93 км)
Погода в Кандалакше (Мурманская область, Россия) (94 км)
Погода в Умбе (Мурманская область, Россия) (95 км)
Погода в Порту Витино (Мурманская область, Россия) (99 км)
Погода в Пулозере (Мурманская область, Россия) (101 км)

Пояснения к столбцам:

Ветер - указаны скорость ветра в м/с - средняя за 10 мин, порывы в срок и между сроками (в фигурных скобках) и направление, откуда дует ветер: С - северный, СВ - северо-восточный, В - восточный, ЮВ - юго-восточный, Ю - южный, ЮЗ - юго-западный, З - западный, СЗ - северо-западный.
Видимость - горизонтальная дальность видимости в метрах или километрах. При видимости от 1 до 10 км при отсутствии осадков обычно наблюдается дымка, при ухудшении видимости до 1 км и менее - туман. В сухую погоду видимость может ухудшаться дымом, пылью или мглою.
Явления - указаны атмосферные явления, наблюдавшиеся в срок или в последний час перед сроком; фигурными скобками обозначены явления, наблюдавшиеся между сроками (за 1-3 часа до срока); квадратными скобками обозначены град или гололедные отложения с указанием их диаметра в мм.
Облачность - указаны через наклонную черту общая и нижняя облачность в баллах и высота нижней границы облаков в метрах; квадратными скобками обозначены формы облаков: Ci - перистые, Cs - перисто-слоистые, Cc - перисто-кучевые, Ac - высококучевые, As - высокослоистые, Sc - слоисто-кучевые, Ns - слоисто-дождевые, Cu - кучевые, Cb - кучево-дождевые. Подробнее классификацию облаков см. в Атласе облаков (PDF).
T - Температура воздуха - температура, измеренная на высоте 2 м над землей.
Td - Температура точки росы - температура, при понижении до которой содержащийся в воздухе водяной пар достигнет насыщения.
f - Относительная влажность воздуха - влажноcть воздуха, измеренная на высоте 2 м над землей.
Te - Эффективная температура - температура, которую ощущает одетый по сезону человек в тени. Характеристика душности погоды. При расчете учитывается влияние влажности воздуха и скорости ветра на теплоощущения человека.
Tes - Эффективная температура на солнце - температура, которую ощущает человек, с поправкой на солнечный нагрев. Характеристика знойности погоды. Зависит от высоты солнца над горизонтом, облачности и скорости ветра. Ночью, в пасмурную погоду, а также при ветре 12 м/с и более поправка равна нулю.
P - Атмосферное давление - приведенное к уровню моря атмосферное давление.
Po - Атмосферное давление - измеренное на уровне метеостанции атмосферное давление.
Tmin - Минимальная температура - минимум температуры воздуха на высоте 2 м над землей.
Tmax - Максимальная температура - максимум температуры воздуха на высоте 2 м над землей.
R - Количество осадков - Количество выпавших осадков за период времени, мм. При наведении курсора мыши на число - период времени, за который выпало указанное количество осадков.
R24 - Количество осадков - Количество выпавших осадков за 24 часа, мм.
S - Снежный покров - Высота снежного покрова, см. При наведении курсора мыши на число - состояние снежного покрова и степень покрытия местности в баллах.